Location: Unspecified
(44.4377°N, 88.0525°W)
Time: 18:12:51
(UTC-06:00)

CZ-3 Stage 3 - Visible Passes

Search period start: 01 February 2015 00:00
Search period end: 11 February 2015 00:00
Orbit: 436 x 34794 km, 31.1° (Epoch: 01 February)

Date Brightness Start Highest point End Pass type
(mag) Time Alt. Az. Time Alt. Az. Time Alt. Az.
01 Feb 7.6 12:25:47 10° SSE 19:50:03 70° S 20:59:22 51° ESE visible
03 Feb 7.7 15:44:16 10° SSW 00:22:44 49° WSW 00:22:44 49° WSW visible
04 Feb 7.5 12:17:53 10° SSE 19:48:30 71° S 20:56:13 50° ESE visible
06 Feb 7.7 15:39:04 10° SSW 00:19:31 48° WSW 00:19:31 48° WSW visible
07 Feb 7.5 12:10:21 10° SSE 19:46:44 71° S 20:52:58 48° ESE visible
09 Feb 7.6 15:33:55 10° SSW 00:16:13 47° WSW 00:16:13 47° WSW visible
10 Feb 7.4 12:03:07 10° SSE 19:44:47 72° S 20:49:38 46° ESE visible
